GFSNGP_2pvu_pres_096.txt.gz
Presure
259 246 262 272 262 260 263 264 273 273 289 305 313 324 344 351 288 276 263 253 247 245 235 240 224 225 203 191 204 196 207 204 190 199 186 202 192 199 198 180 191 212 203 220
244 248 263 267 266 266 271 276 288 298 363 334 343 328 330 327 283 276 265 251 246 238 234 223 223 216 192 206 191 202 195 200 193 206 192 203 193 195 193 208 204 196 202 220
265 268 272 273 272 279 291 332 346 338 316 307 307 310 318 304 276 276 264 253 246 244 234 230 224 216 205 196 201 192 199 191 209 199 195 188 197 191 195 196 219 230 196 212
266 268 277 297 321 327 258 329 424 495 516 415 310 309 316 292 277 280 265 271 240 240 235 233 219 220 213 201 203 199 200 197 199 185 209 178 204 200 183 205 196 214 196 201
295 307 324 319 306 399 412 403 417 464 433 394 308 297 301 298 280 279 262 266 241 245 236 233 213 224 213 215 201 209 191 193 190 192 195 198 189 183 162 203 182 194 174 209
310 321 398 420 397 368 387 406 416 372 373 374 299 300 294 295 287 267 262 253 247 245 235 227 233 218 211 208 207 202 203 197 196 197 204 207 200 191 196 169 194 178 195 206
349 389 397 416 357 364 380 355 339 344 324 298 286 274 283 284 288 272 259 251 249 237 236 224 215 225 217 211 208 204 205 199 196 202 205 206 203 203 189 192 199 203 204 205
354 373 380 349 345 362 348 329 321 312 299 290 272 265 269 277 283 277 251 257 251 234 234 231 222 213 216 214 210 201 211 212 202 201 194 193 190 192 189 199 203 195 193 185
337 344 374 337 335 342 320 305 298 296 284 273 276 268 262 274 280 283 260 252 251 263 245 233 223 226 223 223 207 217 198 210 212 204 196 206 194 204 203 194 193 199 200 183
330 331 346 323 314 327 299 299 296 282 299 272 275 261 262 276 281 283 284 261 245 245 244 228 231 221 233 228 214 214 214 212 214 209 193 202 205 193 192 198 199 194 206 186
304 307 322 308 303 312 291 291 283 284 286 284 283 270 271 264 259 276 280 281 271 261 259 229 222 221 215 231 231 226 220 210 203 212 216 216 208 203 208 213 213 215 208 203
310 294 325 299 298 291 307 285 277 277 280 282 289 280 270 270 271 273 284 289 284 265 265 267 256 249 235 237 229 227 227 221 214 221 218 214 219 215 225 212 218 226 223 224
296 289 308 289 286 286 295 301 276 285 269 280 282 285 274 259 269 298 263 290 284 291 297 268 255 267 261 248 238 229 216 226 229 228 225 220 214 225 216 217 223 222 228 232
289 285 300 295 279 286 285 284 289 289 281 277 281 275 282 290 254 286 276 280 275 272 308 295 293 275 251 256 262 250 238 230 227 237 226 228 227 230 228 226 229 232 229 219
313 282 276 291 294 280 283 277 262 267 275 279 279 284 298 289 292 296 287 270 264 254 272 237 289 296 306 293 269 261 262 251 248 243 237 236 236 231 234 234 231 232 236 233
308 276 294 288 273 293 275 263 285 293 293 293 287 260 271 186 161 263 283 208 269 277 288 254 217 282 298 321 310 330 289 281 266 260 253 251 248 248 249 247 247 249 242 238
322 294 291 267 277 293 284 263 282 272 250 259 238 256 234 291 281 274 220 226 291 333 307 195 316 335 275 320 321 322 326 304 315 328 283 266 246 240 246 246 242 241 240 241
329 331 295 274 279 267 260 265 269 268 280 280 289 350 248 313 274 206 211 214 299 242 280 285 263 309 310 309 309 270 313 304 295 295 304 323 322 299 280 264 257 250 249 248
367 359 341 297 263 265 271 275 275 297 230 217 289 285 282 281 284 285 287 288 289 290 294 294 297 297 299 306 309 311 310 306 314 302 285 288 308 309 300 306 312 293 282 271
332 327 293 317 312 313 324 337 306 279 270 268 271 271 272 271 271 272 270 267 280 275 271 286 289 290 294 296 297 300 308 316 318 308 305 313 299 289 295 302 303 310 319 304
299 304 304 298 274 267 268 268 266 262 264 262 265 266 266 268 254 254 266 272 294 294 279 275 278 287 319 312 309 306 305 307 309 314 319 326 335 320 315 308 299 290 291 305
271 274 274 269 263 260 255 251 252 252 250 254 260 263 260 265 272 266 267 279 288 283 281 294 316 309 303 302 305 308 311 316 319 322 326 331 335 338 347 367 381 335 323 317
265 263 259 255 251 249 251 258 259 247 244 250 252 253 267 273 262 256 266 277 283 312 326 337 345 311 305 306 309 318 337 412 425 461 460 456 452 445 441 435 434 427 424 422
253 248 250 256 258 246 248 251 252 253 258 257 242 242 269 266 253 257 262 281 303 321 343 311 309 318 333 449 473 475 472 468 465 466 469 467 463 458 453 436 424 424 422 416
252 253 242 249 247 243 248 241 241 252 252 252 254 252 261 258 253 261 282 302 327 340 313 313 338 451 479 476 473 469 467 463 457 454 452 451 450 446 440 436 434 433 439 434
248 247 247 241 240 248 243 246 242 271 247 254 253 265 262 256 264 285 300 318 327 308 327 358 492 493 491 486 479 474 467 462 455 450 443 434 432 433 427 419 414 410 410 412
239 237 239 238 241 248 233 237 251 233 252 243 259 260 264 261 278 296 314 329 315 334 362 509 502 477 451 432 424 421 414 409 412 426 444 453 443 424 416 419 419 407 399 392

GFSNGP_2pvu_pres_102.txt.gz
Presure
261 256 253 252 254 253 249 251 254 254 249 253 257 251 253 259 257 257 264 259 260 280 269 315 328 271 260 251 241 238 226 230 227 228 227 217 205 213 217 214 208 208 205 187
246 246 247 247 249 250 252 251 250 251 256 264 264 260 94 259 262 276 260 270 285 286 289 322 341 260 249 258 242 224 227 225 219 218 222 215 205 204 209 199 193 194 195 188
246 247 249 250 250 250 251 251 253 249 253 259 268 268 263 272 275 291 297 291 301 311 321 367 278 253 247 251 239 232 220 228 221 215 212 216 192 198 204 183 198 206 209 208
245 245 237 241 250 254 259 253 257 255 260 268 278 292 304 312 348 362 349 334 343 343 349 345 266 247 247 250 235 227 214 218 219 197 215 214 186 202 207 202 198 194 193 185
237 237 243 255 252 253 257 265 272 282 295 318 347 358 344 516 461 444 403 310 317 337 327 312 258 245 246 248 232 236 222 221 215 190 198 209 181 185 198 205 196 196 207 180
247 257 253 257 259 268 281 294 335 308 312 396 399 445 453 424 406 368 314 309 339 317 311 274 252 242 245 194 237 234 225 221 217 203 204 207 192 185 191 194 186 205 199 209
250 255 267 276 281 303 312 410 396 381 368 375 360 370 389 357 338 312 294 317 312 308 302 267 251 242 245 233 238 227 221 206 211 194 203 201 192 189 191 203 184 195 184 191
263 271 283 300 293 374 385 357 348 324 311 315 323 341 331 317 298 288 289 296 303 294 299 272 251 241 243 239 235 226 211 214 206 204 192 192 202 187 214 188 203 199 190 197
275 300 278 301 370 361 337 317 309 306 303 300 312 308 296 284 279 276 280 281 297 284 291 272 251 238 243 238 230 229 216 208 213 213 203 197 191 211 191 197 199 191 191 197
285 282 301 328 352 332 315 296 288 293 296 295 289 294 297 272 273 269 268 270 275 287 287 281 250 244 236 235 235 234 221 214 209 213 194 211 207 194 198 201 183 191 192 192
278 292 368 350 321 302 294 286 293 281 293 273 279 278 280 282 262 269 270 266 271 279 283 287 268 250 240 235 235 234 219 219 213 211 214 205 196 201 202 195 200 193 199 201
294 351 365 341 295 300 283 283 286 284 280 273 270 274 282 274 278 272 265 265 272 269 274 278 291 264 247 239 238 228 236 216 212 216 210 211 209 204 202 200 203 202 198 200
298 335 319 328 311 286 283 283 282 283 276 271 273 272 263 275 276 259 269 269 270 265 263 277 287 297 287 247 238 233 228 236 226 205 207 213 211 210 214 209 203 183 202 202
336 323 317 304 304 288 275 280 284 268 277 272 267 269 285 270 275 274 279 278 277 277 279 281 272 289 294 303 259 242 233 238 233 238 223 218 211 214 215 204 211 213 206 206
321 318 329 299 305 296 281 280 265 279 270 275 270 274 277 280 284 264 277 280 266 257 258 261 258 260 271 281 271 283 243 240 239 237 236 237 225 222 216 215 217 213 210 207
320 308 299 304 290 284 277 286 277 272 266 270 276 278 279 281 286 294 279 288 281 290 307 284 300 321 304 303 309 285 326 302 251 250 244 238 246 240 231 227 222 221 217 220
316 303 295 285 292 297 291 286 273 271 283 283 275 287 268 270 265 267 287 280 300 303 303 306 296 297 317 318 291 275 332 337 307 244 254 252 253 238 251 247 235 228 235 232
324 305 295 287 284 284 289 260 276 283 274 288 251 258 268 269 265 300 263 251 260 287 292 267 293 294 298 302 306 293 283 298 313 321 333 315 294 263 260 226 235 252 250 244
334 297 290 290 283 274 279 282 282 270 257 249 252 250 248 264 273 278 276 274 270 265 266 265 267 270 290 292 291 292 293 254 265 300 302 309 321 332 317 341 312 271 267 246
287 323 319 296 275 286 281 288 266 270 270 308 287 276 272 267 262 260 255 253 258 262 261 261 261 266 286 287 287 287 287 287 282 282 287 293 302 356 323 379 325 335 341 347
332 330 337 330 294 300 303 278 281 308 279 265 263 258 252 251 250 259 258 256 256 253 262 267 271 269 273 277 281 294 320 356 354 352 356 358 358 358 360 361 365 368 380 336
342 370 367 342 315 302 309 283 271 263 258 252 247 243 251 258 259 249 254 259 259 255 259 263 272 267 268 283 297 325 344 349 356 372 448 549 544 540 535 531 525 443 430 375
325 325 311 293 282 269 262 260 252 246 245 257 245 242 247 252 269 252 255 254 258 259 260 274 268 272 289 308 342 349 365 481 514 492 479 468 458 454 453 452 456 477 497 498
280 275 270 262 262 252 246 251 259 247 242 252 246 260 261 257 251 252 251 250 252 250 253 267 276 299 301 339 353 382 499 476 449 430 422 416 415 417 419 424 437 431 426 435
258 263 255 249 247 257 251 240 252 255 260 247 256 250 237 238 250 246 224 252 255 258 271 261 292 303 335 359 454 476 450 420 410 414 416 414 416 415 409 400 395 401 412 421
250 247 241 255 236 246 250 247 236 238 241 242 249 245 240 242 243 242 244 256 271 270 257 285 303 318 350 446 458 427 408 396 395 399 402 407 407 405 401 398 400 404 407 399
246 255 249 248 244 249 243 244 242 243 245 239 241 248 242 242 251 241 248 272 275 274 286 294 304 331 447 451 422 393 386 392 408 416 425 430 430 426 424 422 418 411 407 403

GFSNGP_2pvu_pres_108.txt.gz
Presure
294 281 272 274 270 273 279 273 274 281 263 280 267 250 244 242 245 248 246 249 239 244 244 237 246 272 263 263 268 265 278 264 300 280 278 259 261 233 233 248 221 217 221 209
285 272 270 277 270 270 266 269 271 274 287 305 268 262 270 250 248 256 251 235 243 259 262 259 271 264 263 264 265 264 250 273 311 271 259 250 245 236 249 217 247 215 208 211
270 266 270 266 266 265 264 262 259 259 267 277 270 258 251 249 249 249 250 265 278 142 273 264 259 256 257 258 261 260 282 283 272 264 252 239 233 217 244 220 228 223 220 210
264 268 259 252 253 251 251 249 249 251 252 253 256 257 257 258 260 261 259 260 259 256 254 256 256 257 254 253 269 272 278 295 257 252 240 240 228 239 235 232 226 229 224 232
256 248 258 248 246 240 244 243 244 245 248 249 252 251 253 254 257 260 261 261 261 264 265 263 263 263 264 270 275 287 330 339 255 250 237 229 217 237 224 228 217 221 232 232
243 241 239 244 242 240 239 234 241 246 249 251 252 252 255 253 260 273 289 290 290 294 297 311 306 351 350 362 352 366 355 265 248 247 238 227 219 231 215 223 222 228 217 224
242 239 241 241 242 243 231 236 245 254 253 264 279 312 381 325 364 369 347 389 390 400 382 377 337 326 306 322 331 315 302 263 242 244 234 229 219 237 216 220 225 228 210 210
241 244 244 243 243 239 247 253 261 276 310 318 382 395 367 364 358 359 361 368 365 356 343 338 323 299 299 312 300 292 276 260 238 239 235 226 215 245 224 212 217 212 214 218
246 245 245 251 245 253 258 276 302 302 350 340 347 360 348 349 325 324 320 313 318 305 308 299 289 315 300 294 288 276 262 252 239 239 234 227 222 227 233 224 214 221 225 213
244 250 252 258 263 270 291 292 313 328 330 321 323 322 317 306 308 301 292 293 289 287 283 275 290 299 284 283 278 265 255 246 248 233 228 228 233 223 235 225 212 218 223 231
251 253 257 270 275 287 283 329 333 316 308 297 306 301 294 294 289 278 283 282 277 274 277 291 281 290 276 276 273 262 252 248 240 246 235 233 228 231 224 228 222 214 222 214
254 261 266 276 289 276 295 336 313 299 285 281 287 285 285 279 274 272 270 265 265 270 266 273 265 275 279 272 274 264 251 251 241 247 240 238 233 217 230 219 217 231 216 218
265 271 276 282 270 290 284 320 299 289 275 280 271 283 275 268 263 264 264 271 266 266 269 253 266 273 279 287 276 268 259 253 248 240 248 233 239 225 228 228 223 222 228 220
269 274 279 268 280 279 275 297 294 287 273 269 274 263 273 275 264 260 259 261 263 264 259 262 263 265 278 280 284 278 269 262 252 249 240 246 240 232 242 234 239 224 235 215
271 276 270 279 289 274 319 294 285 279 271 261 275 273 265 265 271 265 261 259 259 259 259 252 277 276 277 280 282 274 288 278 264 254 228 243 246 252 222 245 228 238 238 228
267 268 275 279 272 272 326 296 283 276 271 270 265 264 273 272 262 263 271 278 270 262 258 260 260 317 314 323 283 328 320 339 329 274 263 256 254 244 249 252 240 247 233 241
275 273 270 271 267 327 322 292 285 271 273 269 263 267 270 271 271 279 278 267 278 279 293 305 292 283 299 300 293 295 299 305 312 317 294 319 274 267 255 258 207 207 251 242
277 277 273 269 309 312 310 295 286 273 269 273 266 259 266 267 271 280 269 279 285 295 277 273 288 281 281 280 281 284 284 283 271 286 289 297 302 309 317 319 301 271 267 267
290 283 285 336 331 314 301 287 287 282 270 267 278 274 265 275 254 265 305 255 275 279 273 270 267 267 266 265 266 269 271 273 272 272 282 285 287 290 299 308 320 334 348 358
371 355 357 321 311 321 298 288 286 287 281 272 268 251 288 265 266 247 271 272 266 261 257 264 259 256 255 256 260 263 263 265 262 264 277 282 288 294 307 320 378 366 473 499
352 343 329 309 302 299 309 287 292 283 280 278 274 269 267 254 275 270 263 252 252 253 240 254 257 244 250 252 254 259 256 254 263 272 284 279 280 297 487 463 452 441 436 436
336 343 316 302 296 288 289 294 302 248 258 299 285 275 276 267 261 252 252 239 254 252 246 241 246 253 254 252 252 251 260 267 270 288 304 314 329 461 441 419 406 398 400 418
334 332 318 302 296 296 286 295 288 273 280 273 275 266 261 252 245 246 251 246 241 248 252 247 243 250 254 244 247 266 269 277 280 281 306 318 398 432 405 396 395 451 457 461
319 319 282 280 300 301 292 292 298 299 281 266 262 252 240 252 250 241 241 251 248 239 252 247 246 247 239 263 260 258 246 279 290 298 310 337 426 402 400 426 446 445 451 447
338 336 320 312 309 313 314 307 286 267 263 251 243 252 255 248 242 241 235 248 244 241 247 247 244 241 255 260 252 264 281 284 290 298 318 426 402 397 452 474 471 459 447 435
326 333 349 381 384 345 286 272 261 255 251 251 259 245 248 243 253 249 250 249 241 237 248 245 241 248 265 254 266 269 280 289 292 308 428 405 395 481 468 451 439 428 422 416
292 288 287 280 271 264 255 252 250 254 246 242 246 239 230 252 244 239 239 251 237 242 243 248 248 250 261 267 267 279 281 291 299 329 407 395 441 461 444 429 420 416 419 475

GFSNGP_2pvu_pres_114.txt.gz
Presure
254 259 269 281 304 293 283 292 284 293 295 271 267 280 284 272 259 244 242 243 251 235 249 260 241 244 250 252 251 252 252 253 253 252 236 239 238 238 245 257 255 260 280 327
267 286 281 305 282 268 298 285 285 287 271 272 273 276 276 279 276 289 268 247 246 245 246 246 245 238 237 239 239 240 246 228 227 236 238 239 236 236 252 245 245 308 283 313
293 291 293 269 275 289 281 272 292 275 265 257 264 268 268 266 265 271 271 277 284 282 303 288 296 261 272 275 273 260 268 261 243 243 237 238 243 261 268 290 297 279 303 290
302 290 276 279 277 278 272 284 275 263 262 261 259 259 259 256 254 253 255 257 259 262 267 273 278 273 265 262 266 271 270 265 270 276 284 286 282 282 279 278 252 274 291 271
269 276 266 287 284 267 283 270 260 259 253 252 249 251 250 248 249 249 248 247 249 251 252 252 254 255 258 260 260 261 267 269 264 259 261 262 261 267 259 274 261 272 278 246
272 266 292 269 281 278 268 257 256 254 251 245 242 245 241 244 245 247 249 247 249 252 256 260 261 260 258 259 260 260 257 257 257 259 261 263 264 269 273 254 280 293 265 245
317 285 284 269 271 259 249 253 245 246 244 243 242 244 246 247 247 249 249 256 266 281 330 335 331 322 279 272 270 265 262 257 258 259 263 271 274 277 286 320 275 310 254 240
286 266 257 258 254 254 245 243 244 244 243 243 245 249 251 259 266 283 331 369 362 347 359 359 356 366 359 365 366 363 351 344 338 332 326 326 317 319 323 318 297 264 251 241
264 258 258 256 252 244 244 244 242 239 245 246 251 260 281 302 300 346 341 345 356 338 329 327 325 326 323 322 318 315 308 305 295 310 307 315 316 306 288 279 288 254 244 237
252 253 249 244 244 244 244 244 243 242 250 255 278 304 302 340 330 328 315 308 309 300 298 298 299 296 294 292 290 284 285 279 276 278 296 293 293 285 277 274 267 249 244 227
253 251 247 245 240 239 240 245 248 247 258 275 290 317 322 289 318 299 294 291 289 284 284 283 281 285 277 278 275 277 274 267 269 267 282 273 268 271 269 268 259 246 242 236
247 246 244 243 246 246 250 246 250 261 278 281 333 316 311 304 292 280 283 281 278 288 268 274 272 271 266 272 266 267 272 266 264 267 272 265 276 262 266 265 256 248 239 244
244 245 246 248 246 246 245 256 260 270 278 346 315 308 291 296 282 276 270 272 258 260 265 270 270 263 263 255 255 261 280 266 263 267 264 265 269 272 270 267 262 250 253 242
246 244 245 246 245 248 259 257 265 276 267 285 305 296 288 280 281 273 264 265 263 263 262 261 257 258 258 259 263 269 265 271 271 267 270 270 269 274 275 277 265 256 251 257
248 249 248 247 252 258 256 262 271 271 261 277 304 286 275 269 277 266 258 260 259 254 256 260 259 255 257 259 263 266 262 276 274 281 289 297 281 285 280 282 283 271 253 259
249 253 258 257 256 257 264 272 271 268 261 272 300 291 275 264 273 263 262 262 260 261 263 260 257 254 260 268 269 269 282 317 316 309 304 299 300 305 308 313 313 268 288 258
262 256 255 257 264 271 265 265 278 260 268 272 275 292 277 266 264 257 265 265 261 258 260 264 264 270 269 270 311 301 286 286 281 279 278 278 277 276 279 285 290 299 305 318
258 262 265 266 264 268 273 276 270 262 268 275 261 292 285 276 264 260 254 250 252 258 261 265 280 274 307 290 255 273 268 267 266 265 265 265 267 269 271 271 274 275 282 290
269 269 268 270 272 276 275 265 261 263 263 269 262 300 283 274 267 263 265 271 256 267 270 276 268 289 281 276 268 261 267 253 261 257 262 262 263 265 268 271 274 276 282 287
289 283 276 275 271 266 262 260 265 265 270 266 262 301 287 281 270 264 257 259 266 262 266 280 266 280 268 265 259 255 260 262 255 253 257 258 256 257 263 270 274 274 282 289
474 452 430 349 305 285 279 275 280 278 270 262 268 299 296 278 273 274 270 263 275 259 279 283 290 262 261 256 252 260 253 254 262 246 257 257 259 261 262 257 264 270 284 307
440 426 406 400 389 368 346 319 304 300 306 311 310 294 288 277 272 270 270 270 265 279 281 284 268 257 255 254 255 251 250 248 245 243 241 254 250 257 265 274 275 277 348 315
405 392 381 373 362 354 343 331 325 318 319 301 293 290 289 278 277 273 274 269 271 291 283 265 255 256 252 247 242 257 258 245 244 239 250 254 254 265 267 274 307 346 313 309
362 357 350 343 335 323 322 325 314 320 304 299 287 279 280 274 274 285 267 286 278 282 260 254 248 244 250 250 241 236 238 242 248 242 252 252 261 267 276 326 349 352 309 423
338 338 343 322 315 320 306 302 308 296 310 302 288 283 274 266 262 276 285 273 278 254 255 253 246 259 249 243 238 243 247 252 253 253 262 263 268 274 332 350 344 304 372 404
311 320 321 304 330 314 302 296 296 298 291 293 282 284 280 289 286 274 272 273 251 253 241 248 239 241 241 237 239 242 248 248 254 264 261 273 277 325 354 338 299 370 409 390
318 323 318 307 326 322 304 298 288 300 285 271 276 279 278 271 268 265 247 241 241 240 250 241 232 237 241 246 245 244 253 254 259 257 275 285 318 361 325 297 317 414 395 379